(°C)
11°
11°
11°
12°
13°
14°
15°
(°C)
E
E
E
E
E
E
E
(km/h)
19-23
18-23
18-22
18-23
19-22
20-26
21-30
(mm)
3
3
0
0
0
0
0
(%)
25
25
0
0
7
0
7

Élévation du soleil

/ -26.5°
sun-icon
UV 2
07:19
19:33
Gibbeuse décroissante (209°)
20:36
09:40

METAR pour 51.15°N 51.54°E (UARR)

Heure Conditions Température/
Point de rosée
Vent Visibilité Météo Nuages Pression Changement Brut
VFR 11°C / 6°C 90º 10kt >10km Light Showers Rain 3.00mm precipitation Vertical Visibility of 0ft. 1018 No Significant change. Runway 04: Wet or puddles, 1-10% contamination with 1mm, friction coefficient 0.65. UARR 222300Z 09005MPS 9999 -SHRA BKN050CB 11/06 Q1018 R04/210165 NOSIG RMK QFE760/1014
VFR 11°C / 5°C 120º 6kt >10km Light Showers Rain 3.00mm precipitation Vertical Visibility of 0ft. 1018 No Significant change. Runway 04: Wet or puddles, 1-10% contamination with 1mm, friction coefficient 0.65. UARR 222230Z 12003MPS 9999 -SHRA BKN050CB 11/05 Q1018 R04/210165 NOSIG RMK QFE760/1014
VFR 12°C / 4°C 110º 10kt >10km - Broken Clouds 5000ft 1018 No Significant change. Runway 04: Wet or puddles, 1-10% contamination with 1mm, friction coefficient 0.65. UARR 222200Z 11005MPS 9999 BKN050CB 12/04 Q1018 R04/210165 NOSIG RMK QFE760/1014
VFR 12°C / 4°C 110º 10kt >10km - Broken Clouds 5000ft 1018 No Significant change. Runway 04: Wet or puddles, 11-25% contamination with 3mm, friction coefficient 0.60. UARR 222130Z 11005MPS 9999 BKN050CB 12/04 Q1018 R04/220360 NOSIG RMK QFE760/1014
VFR 12°C / 4°C 90º 10kt >10km - Broken Clouds 5000ft 1018 No Significant change. Runway 04: Wet or puddles, 11-25% contamination with 3mm, friction coefficient 0.60. UARR 222100Z 09005MPS 9999 BKN050CB 12/04 Q1018 R04/220360 NOSIG RMK QFE760/1014
VFR 12°C / 5°C 100º 10kt >10km - Broken Clouds 5000ft 1018 No Significant change. Runway 04: Wet or puddles, 11-25% contamination with 3mm, friction coefficient 0.60. UARR 222030Z 10005MPS 9999 BKN050CB 12/05 Q1018 R04/220360 NOSIG RMK QFE760/1014
VFR 12°C / 5°C 100º 10kt >10km - Broken Clouds 5000ft 1018 No Significant change. Runway 04: Wet or puddles, 11-25% contamination with 3mm, friction coefficient 0.60. UARR 222000Z 10005MPS 9999 BKN050CB 12/05 Q1018 R04/220360 NOSIG RMK QFE760/1014
VFR 11°C / 6°C 80º 8kt >10km - Broken Clouds 5000ft 1018 No Significant change. Runway 04: Wet or puddles, 11-25% contamination with 3mm, friction coefficient 0.60. UARR 221930Z 08004MPS 9999 BKN050CB 11/06 Q1018 R04/220360 NOSIG RMK QFE760/1014
VFR 11°C / 7°C 70º 8kt >10km - Broken Clouds 5000ft 1018 No Significant change. Runway 04: Wet or puddles, 11-25% contamination with 3mm, friction coefficient 0.60. UARR 221900Z 07004MPS 9999 BKN050CB 11/07 Q1018 R04/220360 NOSIG RMK QFE760/1014
VFR 11°C / 6°C 70º 10kt >10km - Broken Clouds 5000ft 1018 No Significant change. Runway 04: Wet or puddles, 11-25% contamination with 3mm, friction coefficient 0.60. UARR 221830Z 07005MPS 9999 BKN050CB 11/06 Q1018 R04/220360 NOSIG RMK QFE760/1014
VFR 11°C / 7°C 80º 10kt >10km - Broken Clouds 5000ft 1018 No Significant change. Runway 04: Wet or puddles, 11-25% contamination with 3mm, friction coefficient 0.60. UARR 221800Z 08005MPS 9999 BKN050CB 11/07 Q1018 R04/220360 NOSIG RMK QFE760/1014
VFR 12°C / 6°C 110º 6kt >10km Light Showers Rain 3.00mm precipitation Vertical Visibility of 0ft. 1019 No Significant change UARR 221730Z 11003MPS 9999 -SHRA BKN050CB 12/06 Q1019 R04/CLRD70 NOSIG RMK QFE760/1014
VFR 12°C / 5°C 100º 8kt >10km - Broken Clouds 5000ft 1018 No Significant change UARR 221700Z 10004MPS 9999 BKN050CB 12/05 Q1018 R04/CLRD70 NOSIG RMK QFE760/1014
VFR 12°C / 6°C 80º 8kt >10km - Overcast 5000ft 1018 No Significant change. Runway 04: Damp, 51-100% contamination with <1mm, friction coefficient 0.65. UARR 221630Z 08004MPS 9999 OVC050CB 12/06 Q1018 R04/190065 NOSIG RMK QFE760/1014
VFR 13°C / 6°C 80º 10kt >10km - Overcast 5000ft 1018 No Significant change. Runway 04: Damp, 51-100% contamination with <1mm, friction coefficient 0.65. UARR 221600Z 08005MPS 9999 OVC050CB 13/06 Q1018 R04/190065 NOSIG RMK QFE760/1014
VFR 13°C / 6°C 70º 10kt >10km - Broken Clouds 5000ft 1018 No Significant change. Runway 04: Damp, 51-100% contamination with <1mm, friction coefficient 0.65. UARR 221530Z 07005MPS 9999 BKN050CB 13/06 Q1018 R04/190065 NOSIG RMK QFE760/1014
VFR 13°C / 6°C 70º 10kt >10km - Broken Clouds 5000ft 1018 No Significant change. Runway 04: Damp, 51-100% contamination with <1mm, friction coefficient 0.65. UARR 221500Z 07005MPS 9999 BKN050CB 13/06 Q1018 R04/190065 NOSIG RMK QFE760/1014
VFR 13°C / 6°C 70º 8kt >10km - Broken Clouds 5000ft 1018 No Significant change. Runway 04: Damp, 51-100% contamination with <1mm, friction coefficient 0.65. UARR 221430Z 07004MPS 9999 BKN050CB 13/06 Q1018 R04/190065 NOSIG RMK QFE760/1013
VFR 13°C / 6°C 90º 8kt >10km - Broken Clouds 4600ft 1018 No Significant change. Runway 04: Damp, 51-100% contamination with <1mm, friction coefficient 0.65. UARR 221400Z 09004MPS 9999 BKN046CB 13/06 Q1018 R04/190065 NOSIG RMK QFE760/1013
VFR 13°C / 7°C 70º 10kt >10km - Broken Clouds 5000ft 1018 No Significant change. Runway 04: Damp, 51-100% contamination with <1mm, friction coefficient 0.65. UARR 221330Z 07005MPS 9999 BKN050CB 13/07 Q1018 R04/190065 NOSIG RMK QFE760/1013
VFR 13°C / 8°C 80º 8kt >10km - Broken Clouds 4400ft 1018 No Significant change. Runway 22: Damp, 51-100% contamination with <1mm, friction coefficient 0.65. UARR 221300Z 08004MPS 9999 BKN044CB 13/08 Q1018 R22/190065 NOSIG RMK QFE760/1013
VFR 14°C / 7°C 110º 8kt >10km - Broken Clouds 4300ft 1018 No Significant change. Runway 22: Damp, 51-100% contamination with <1mm, friction coefficient 0.65. UARR 221230Z 11004MPS 9999 BKN043CB 14/07 Q1018 R22/190065 NOSIG RMK QFE760/1013
VFR 14°C / 7°C 120º 8kt >10km - Broken Clouds 3900ft 1018 No Significant change. Runway 22: Damp, 51-100% contamination with <1mm, friction coefficient 0.65. UARR 221200Z 12004MPS 9999 BKN039CB 14/07 Q1018 R22/190065 NOSIG RMK QFE760/1013
VFR 13°C / 8°C 90º 10kt >10km - Broken Clouds 5000ft 1018 No Significant change. Runway 22: Damp, 51-100% contamination with <1mm, friction coefficient 0.65. UARR 221130Z 09005MPS 9999 BKN050CB 13/08 Q1018 R22/190065 NOSIG RMK QFE760/1013

VFR

11°C / 6°C

[Plus]
Vent 90º 10kt
Visibilité >10km
Météo Light Showers Rain 3.00mm precipitation
Nuages Vertical Visibility of 0ft.
Pression 1018
Changement No Significant change. Runway 04: Wet or puddles, 1-10% contamination with 1mm, friction coefficient 0.65.
Brut UARR 222300Z 09005MPS 9999 -SHRA BKN050CB 11/06 Q1018 R04/210165 NOSIG RMK QFE760/1014

VFR

11°C / 5°C

[Plus]
Vent 120º 6kt
Visibilité >10km
Météo Light Showers Rain 3.00mm precipitation
Nuages Vertical Visibility of 0ft.
Pression 1018
Changement No Significant change. Runway 04: Wet or puddles, 1-10% contamination with 1mm, friction coefficient 0.65.
Brut UARR 222230Z 12003MPS 9999 -SHRA BKN050CB 11/05 Q1018 R04/210165 NOSIG RMK QFE760/1014

VFR

12°C / 4°C

[Plus]
Vent 110º 10kt
Visibilité >10km
Météo -
Nuages Broken Clouds 5000ft
Pression 1018
Changement No Significant change. Runway 04: Wet or puddles, 1-10% contamination with 1mm, friction coefficient 0.65.
Brut UARR 222200Z 11005MPS 9999 BKN050CB 12/04 Q1018 R04/210165 NOSIG RMK QFE760/1014

VFR

12°C / 4°C

[Plus]
Vent 110º 10kt
Visibilité >10km
Météo -
Nuages Broken Clouds 5000ft
Pression 1018
Changement No Significant change. Runway 04: Wet or puddles, 11-25% contamination with 3mm, friction coefficient 0.60.
Brut UARR 222130Z 11005MPS 9999 BKN050CB 12/04 Q1018 R04/220360 NOSIG RMK QFE760/1014

VFR

12°C / 4°C

[Plus]
Vent 90º 10kt
Visibilité >10km
Météo -
Nuages Broken Clouds 5000ft
Pression 1018
Changement No Significant change. Runway 04: Wet or puddles, 11-25% contamination with 3mm, friction coefficient 0.60.
Brut UARR 222100Z 09005MPS 9999 BKN050CB 12/04 Q1018 R04/220360 NOSIG RMK QFE760/1014

VFR

12°C / 5°C

[Plus]
Vent 100º 10kt
Visibilité >10km
Météo -
Nuages Broken Clouds 5000ft
Pression 1018
Changement No Significant change. Runway 04: Wet or puddles, 11-25% contamination with 3mm, friction coefficient 0.60.
Brut UARR 222030Z 10005MPS 9999 BKN050CB 12/05 Q1018 R04/220360 NOSIG RMK QFE760/1014

VFR

12°C / 5°C

[Plus]
Vent 100º 10kt
Visibilité >10km
Météo -
Nuages Broken Clouds 5000ft
Pression 1018
Changement No Significant change. Runway 04: Wet or puddles, 11-25% contamination with 3mm, friction coefficient 0.60.
Brut UARR 222000Z 10005MPS 9999 BKN050CB 12/05 Q1018 R04/220360 NOSIG RMK QFE760/1014

VFR

11°C / 6°C

[Plus]
Vent 80º 8kt
Visibilité >10km
Météo -
Nuages Broken Clouds 5000ft
Pression 1018
Changement No Significant change. Runway 04: Wet or puddles, 11-25% contamination with 3mm, friction coefficient 0.60.
Brut UARR 221930Z 08004MPS 9999 BKN050CB 11/06 Q1018 R04/220360 NOSIG RMK QFE760/1014

VFR

11°C / 7°C

[Plus]
Vent 70º 8kt
Visibilité >10km
Météo -
Nuages Broken Clouds 5000ft
Pression 1018
Changement No Significant change. Runway 04: Wet or puddles, 11-25% contamination with 3mm, friction coefficient 0.60.
Brut UARR 221900Z 07004MPS 9999 BKN050CB 11/07 Q1018 R04/220360 NOSIG RMK QFE760/1014

VFR

11°C / 6°C

[Plus]
Vent 70º 10kt
Visibilité >10km
Météo -
Nuages Broken Clouds 5000ft
Pression 1018
Changement No Significant change. Runway 04: Wet or puddles, 11-25% contamination with 3mm, friction coefficient 0.60.
Brut UARR 221830Z 07005MPS 9999 BKN050CB 11/06 Q1018 R04/220360 NOSIG RMK QFE760/1014

VFR

11°C / 7°C

[Plus]
Vent 80º 10kt
Visibilité >10km
Météo -
Nuages Broken Clouds 5000ft
Pression 1018
Changement No Significant change. Runway 04: Wet or puddles, 11-25% contamination with 3mm, friction coefficient 0.60.
Brut UARR 221800Z 08005MPS 9999 BKN050CB 11/07 Q1018 R04/220360 NOSIG RMK QFE760/1014

VFR

12°C / 6°C

[Plus]
Vent 110º 6kt
Visibilité >10km
Météo Light Showers Rain 3.00mm precipitation
Nuages Vertical Visibility of 0ft.
Pression 1019
Changement No Significant change
Brut UARR 221730Z 11003MPS 9999 -SHRA BKN050CB 12/06 Q1019 R04/CLRD70 NOSIG RMK QFE760/1014

VFR

12°C / 5°C

[Plus]
Vent 100º 8kt
Visibilité >10km
Météo -
Nuages Broken Clouds 5000ft
Pression 1018
Changement No Significant change
Brut UARR 221700Z 10004MPS 9999 BKN050CB 12/05 Q1018 R04/CLRD70 NOSIG RMK QFE760/1014

VFR

12°C / 6°C

[Plus]
Vent 80º 8kt
Visibilité >10km
Météo -
Nuages Overcast 5000ft
Pression 1018
Changement No Significant change. Runway 04: Damp, 51-100% contamination with <1mm, friction coefficient 0.65.
Brut UARR 221630Z 08004MPS 9999 OVC050CB 12/06 Q1018 R04/190065 NOSIG RMK QFE760/1014

VFR

13°C / 6°C

[Plus]
Vent 80º 10kt
Visibilité >10km
Météo -
Nuages Overcast 5000ft
Pression 1018
Changement No Significant change. Runway 04: Damp, 51-100% contamination with <1mm, friction coefficient 0.65.
Brut UARR 221600Z 08005MPS 9999 OVC050CB 13/06 Q1018 R04/190065 NOSIG RMK QFE760/1014

VFR

13°C / 6°C

[Plus]
Vent 70º 10kt
Visibilité >10km
Météo -
Nuages Broken Clouds 5000ft
Pression 1018
Changement No Significant change. Runway 04: Damp, 51-100% contamination with <1mm, friction coefficient 0.65.
Brut UARR 221530Z 07005MPS 9999 BKN050CB 13/06 Q1018 R04/190065 NOSIG RMK QFE760/1014

VFR

13°C / 6°C

[Plus]
Vent 70º 10kt
Visibilité >10km
Météo -
Nuages Broken Clouds 5000ft
Pression 1018
Changement No Significant change. Runway 04: Damp, 51-100% contamination with <1mm, friction coefficient 0.65.
Brut UARR 221500Z 07005MPS 9999 BKN050CB 13/06 Q1018 R04/190065 NOSIG RMK QFE760/1014

VFR

13°C / 6°C

[Plus]
Vent 70º 8kt
Visibilité >10km
Météo -
Nuages Broken Clouds 5000ft
Pression 1018
Changement No Significant change. Runway 04: Damp, 51-100% contamination with <1mm, friction coefficient 0.65.
Brut UARR 221430Z 07004MPS 9999 BKN050CB 13/06 Q1018 R04/190065 NOSIG RMK QFE760/1013

VFR

13°C / 6°C

[Plus]
Vent 90º 8kt
Visibilité >10km
Météo -
Nuages Broken Clouds 4600ft
Pression 1018
Changement No Significant change. Runway 04: Damp, 51-100% contamination with <1mm, friction coefficient 0.65.
Brut UARR 221400Z 09004MPS 9999 BKN046CB 13/06 Q1018 R04/190065 NOSIG RMK QFE760/1013

VFR

13°C / 7°C

[Plus]
Vent 70º 10kt
Visibilité >10km
Météo -
Nuages Broken Clouds 5000ft
Pression 1018
Changement No Significant change. Runway 04: Damp, 51-100% contamination with <1mm, friction coefficient 0.65.
Brut UARR 221330Z 07005MPS 9999 BKN050CB 13/07 Q1018 R04/190065 NOSIG RMK QFE760/1013

VFR

13°C / 8°C

[Plus]
Vent 80º 8kt
Visibilité >10km
Météo -
Nuages Broken Clouds 4400ft
Pression 1018
Changement No Significant change. Runway 22: Damp, 51-100% contamination with <1mm, friction coefficient 0.65.
Brut UARR 221300Z 08004MPS 9999 BKN044CB 13/08 Q1018 R22/190065 NOSIG RMK QFE760/1013

VFR

14°C / 7°C

[Plus]
Vent 110º 8kt
Visibilité >10km
Météo -
Nuages Broken Clouds 4300ft
Pression 1018
Changement No Significant change. Runway 22: Damp, 51-100% contamination with <1mm, friction coefficient 0.65.
Brut UARR 221230Z 11004MPS 9999 BKN043CB 14/07 Q1018 R22/190065 NOSIG RMK QFE760/1013

VFR

14°C / 7°C

[Plus]
Vent 120º 8kt
Visibilité >10km
Météo -
Nuages Broken Clouds 3900ft
Pression 1018
Changement No Significant change. Runway 22: Damp, 51-100% contamination with <1mm, friction coefficient 0.65.
Brut UARR 221200Z 12004MPS 9999 BKN039CB 14/07 Q1018 R22/190065 NOSIG RMK QFE760/1013

VFR

13°C / 8°C

[Plus]
Vent 90º 10kt
Visibilité >10km
Météo -
Nuages Broken Clouds 5000ft
Pression 1018
Changement No Significant change. Runway 22: Damp, 51-100% contamination with <1mm, friction coefficient 0.65.
Brut UARR 221130Z 09005MPS 9999 BKN050CB 13/08 Q1018 R22/190065 NOSIG RMK QFE760/1013

TAF pour 51.15°N 51.54°E (UARR)

From till


From till Wind 110º 8kt. Gust 17kt. Visibility 10km or more. Broken Clouds 3300ft.
Temporarly from till Visibility 3100m. Light Showers Rain Mist .

Brut: TAF UARR 222300Z 2300/2309 11004G09MPS 9999 BKN033CB TEMPO 2300/2304 3100 -SHRA BR

Les images satellites et les pluies actuelles pour 51.15°N 51.54°E

Le marqueur est placé sur 51.15°N 51.54°E. [Plus]

L'image satellite en temps réel combine la lumière visible pendant la journée et le rayonnement infrarouge pendant la nuit. La nuit, l'image n'est pas sombre car le rayonnement infrarouge permet de détecter les différences de température. Malheureusement, les nuages bas et le brouillard sont difficiles à distinguer des températures au sol et peuvent donc être presque invisibles pendant la nuit. Les images des satellites Météosat pour l'Europe sont mises à jour en temps réel toutes les 5 minutes. Les images GOES-16/GOES-17 (Amérique du Nord et du Sud) et Himawari (Asie) sont mises à jour toutes les 10 minutes.

Copyright 2021 EUMETSAT / meteoblue. / Copyright 2021 meteoblue

Radar et prévision de précipitation à court terme pour 51.15°N 51.54°E

Bruine
Légère
Modéré
Fort
Très fort
Grêle

Le marqueur est placé sur 51.15°N 51.54°E. Cette animation montre le Radar des précipitations pour les dernières heures, ainsi qu'une 1h prévision. La bruine ou les légères chutes de neiges peuvent ne pas être détectées par le radar. L'intensité des précipitations est visible avec un code couleur allant du bleu clair au orange.